Date,TemperatureHighF,TemperatureAvgF,TemperatureLowF,DewpointHighF,DewpointAvgF,DewpointLowF,HumidityHigh,HumidityAvg,HumidityLow,PressureMaxIn,PressureMinIn,WindSpeedMaxMPH,WindSpeedAvgMPH,GustSpeedMaxMPH,PrecipitationSumIn
2013-1-1,12.3,4.3,-13.0,8.4,-1.5,-19.8,84,77,58,30.32,30.13,26,8,26,0.00
2013-1-2,17.5,14.8,11.9,13.2,10.8,7.7,91,84,77,30.13,30.02,17,7,17,0.00
2013-1-3,19.5,15.9,11.1,15.6,10.8,5.1,89,80,70,30.21,30.00,31,12,31,0.00
2013-1-4,32.1,17.5,8.1,21.9,12.1,4.2,90,80,60,30.19,29.99,22,10,22,0.00
2013-1-5,30.1,16.2,2.8,17.5,9.9,-2.0,90,77,56,30.19,29.90,21,6,21,0.00
2013-1-6,24.8,19.9,12.6,19.8,13.7,6.7,90,77,62,30.22,29.98,20,8,20,0.00
2013-1-7,33.1,23.7,13.6,23.8,17.3,4.4,85,76,64,30.12,29.86,33,15,33,0.01
2013-1-8,37.2,23.2,15.7,28.4,18.5,5.3,88,83,60,30.06,29.76,31,8,31,0.01
2013-1-9,31.6,28.0,18.1,27.3,21.5,13.7,91,76,63,30.39,29.80,43,17,43,0.00
2013-1-10,42.2,31.1,17.5,32.8,17.7,8.8,96,63,27,30.43,29.79,30,14,30,0.17
2013-1-11,40.1,36.4,34.0,40.1,35.8,32.8,100,98,94,29.80,29.39,28,12,28,0.22
2013-1-12,41.1,23.7,12.4,41.1,19.8,5.4,100,85,73,30.03,29.36,37,18,37,0.24
2013-1-13,12.4,7.8,3.5,6.2,1.7,-1.4,81,76,68,30.25,30.00,17,8,17,0.00
2013-1-14,9.5,3.6,0.5,2.4,-1.4,-4.8,83,79,71,30.44,30.25,18,5,18,0.00
2013-1-15,24.5,14.2,3.5,15.4,7.3,-1.3,85,74,54,30.42,29.86,23,11,23,0.00
2013-1-16,27.0,20.6,6.9,24.1,13.6,-3.7,93,75,56,30.22,29.62,31,14,31,0.00
2013-1-17,8.8,2.0,-8.2,-0.4,-6.5,-14.8,74,67,60,30.45,30.22,15,7,15,0.00
2013-1-18,26.1,14.3,-8.2,22.1,10.4,-14.0,88,84,75,30.42,29.82,23,7,23,0.00
2013-1-19,31.0,18.1,0.5,28.0,13.4,-6.4,93,82,65,30.10,29.60,46,15,46,0.00
2013-1-20,3.5,-3.3,-11.0,-6.4,-11.1,-17.8,75,69,55,30.36,30.10,26,10,26,0.00
2013-1-21,-7.5,-12.7,-18.4,-13.3,-22.2,-26.9,77,62,50,30.37,30.27,27,13,27,0.00
2013-1-22,-1.0,-11.0,-19.9,-13.7,-20.0,-27.5,70,64,52,30.49,30.35,20,9,20,0.00
2013-1-23,7.7,-5.3,-15.6,-0.2,-12.3,-22.9,79,71,62,30.68,30.21,34,11,35,0.00
2013-1-24,6.1,-3.8,-19.6,0.3,-12.1,-27.7,79,67,51,30.78,30.33,25,8,25,0.00
2013-1-25,16.2,10.1,0.9,9.7,4.7,-5.6,83,78,71,30.33,30.00,20,10,20,0.00
2013-1-26,20.8,8.2,-9.8,12.2,1.9,-16.4,87,75,65,30.46,30.29,22,8,22,0.00
2013-1-27,33.7,24.6,16.1,26.1,18.1,9.5,92,77,55,30.29,29.90,22,11,22,0.00
2013-1-28,36.2,28.3,20.5,30.6,25.5,17.6,95,89,78,29.95,29.73,16,4,16,0.05
2013-1-29,32.5,30.5,25.8,31.7,28.7,21.9,97,93,84,29.74,29.53,20,8,20,0.01
2013-1-30,25.8,16.5,7.2,22.1,12.3,2.9,87,83,79,29.71,29.58,27,12,27,0.01
2013-1-31,8.6,4.0,-4.6,2.9,-1.8,-11.3,82,76,68,30.20,29.67,22,12,22,0.00
2013-2-1,-1.0,-8.5,-21.1,-10.8,-16.5,-29.5,73,67,58,30.33,30.20,18,8,18,0.00
2013-2-2,11.9,0.8,-12.5,1.2,-6.4,-19.8,80,71,57,30.27,30.05,14,5,14,0.00
2013-2-3,9.0,2.4,-7.2,-0.5,-5.0,-13.8,81,71,55,30.10,30.00,22,9,22,0.00
2013-2-4,13.5,-1.2,-18.4,-0.3,-9.9,-26.0,81,66,45,30.16,29.92,14,6,14,0.00
2013-2-5,19.7,10.6,-2.0,12.7,5.0,-8.3,88,78,65,30.15,29.75,21,8,21,0.00
2013-2-6,20.2,10.2,-7.2,17.4,6.1,-13.7,90,83,71,30.23,30.12,12,4,12,0.00
2013-2-7,23.3,20.5,16.2,20.1,17.4,12.0,92,88,82,30.34,30.16,20,9,20,0.00
2013-2-8,26.4,15.2,7.2,15.5,10.0,2.0,89,80,59,30.46,30.34,12,5,12,0.00
2013-2-9,23.8,18.2,7.7,19.4,14.9,3.9,92,87,82,30.36,30.08,25,12,25,0.00
2013-2-10,31.8,26.4,20.8,30.8,24.9,18.8,96,94,92,30.08,29.32,21,6,21,0.00
2013-2-11,30.3,24.9,19.1,29.3,22.5,15.9,96,91,86,29.98,29.31,21,10,21,0.00
2013-2-12,28.1,20.4,15.4,23.0,16.8,11.5,93,86,78,30.01,29.80,20,9,20,0.00
2013-2-13,38.5,26.7,18.3,30.7,23.4,15.3,93,87,71,29.80,29.65,13,7,13,0.06
2013-2-14,29.1,20.8,7.4,23.8,15.7,0.8,91,81,69,30.14,29.68,23,9,23,0.06
2013-2-15,14.3,7.7,1.8,4.1,-0.1,-4.0,86,70,51,30.30,30.14,23,10,23,0.00
2013-2-16,14.3,0.9,-12.0,1.3,-8.4,-18.8,85,66,43,30.28,30.23,13,5,13,0.00
2013-2-17,25.3,7.6,-16.9,11.7,-2.7,-24.3,82,63,48,30.26,29.86,30,14,30,0.00
2013-2-18,31.0,24.8,15.7,25.9,19.5,11.4,90,80,69,29.85,29.53,26,12,26,0.01
2013-2-19,15.6,5.0,-0.6,11.4,-1.9,-7.6,83,73,63,30.35,29.65,31,16,31,0.01
2013-2-20,15.9,7.3,-1.8,5.5,0.9,-8.3,84,75,61,30.55,30.35,17,8,17,0.00
2013-2-21,27.2,11.6,-10.3,14.9,4.9,-16.8,87,75,52,30.59,30.25,21,8,21,0.01
2013-2-22,26.6,21.7,17.3,22.4,18.3,14.1,90,87,80,30.25,29.85,12,6,12,0.01
2013-2-23,32.1,26.1,21.1,26.3,23.1,18.4,96,88,78,29.95,29.82,13,4,13,0.01
2013-2-24,31.9,25.8,12.8,27.8,22.3,8.2,94,87,77,30.13,29.95,9,3,9,0.01
2013-2-25,31.3,20.1,3.7,26.3,15.8,-1.1,94,83,79,30.19,30.12,12,4,12,0.01
2013-2-26,39.1,24.5,6.9,27.6,18.7,2.7,95,79,57,30.17,29.96,27,11,27,0.22
2013-2-27,29.7,28.5,27.3,25.6,24.1,21.5,90,84,76,30.03,29.90,32,18,32,0.22
2013-2-28,27.3,23.1,19.9,23.3,18.1,14.1,89,81,74,30.30,30.03,31,15,31,0.00
2013-3-1,23.6,19.3,9.2,15.4,12.5,3.8,81,75,62,30.42,30.30,30,13,30,0.00
2013-3-2,25.3,10.7,-5.4,12.7,-0.5,-11.8,88,63,28,30.42,30.27,16,6,16,0.01
2013-3-3,32.7,12.3,-9.1,11.7,-0.1,-14.9,87,62,25,30.28,30.15,13,5,13,0.07
2013-3-4,33.7,22.7,8.6,18.7,7.0,-0.3,86,55,25,30.18,30.10,20,7,20,0.01
2013-3-5,27.8,24.0,19.4,20.0,15.2,8.9,90,70,50,30.30,30.09,29,10,29,0.01
2013-3-6,29.0,19.9,6.0,16.5,12.7,2.0,88,75,49,30.41,30.28,24,7,24,0.02
2013-3-7,34.6,16.9,-2.0,16.5,7.9,-7.4,87,70,43,30.49,30.40,13,4,13,0.12
2013-3-8,40.9,29.1,18.4,27.2,20.4,11.5,81,70,54,30.45,30.22,22,12,22,0.16
2013-3-9,33.8,31.8,29.0,32.8,28.8,21.1,97,89,72,30.22,29.79,22,11,22,0.17
2013-3-10,33.4,31.0,27.2,32.6,27.6,22.4,97,87,78,30.00,29.80,33,15,33,0.04
2013-3-11,27.2,23.9,20.5,24.0,20.8,17.3,93,88,79,29.91,29.75,39,16,39,0.04
2013-3-12,24.2,20.2,16.4,17.6,15.4,12.3,89,82,61,30.15,29.79,23,13,23,0.00
2013-3-13,31.3,18.4,6.1,12.5,4.5,-2.2,85,58,24,30.37,30.15,22,9,22,0.08
2013-3-14,35.0,21.1,1.5,26.9,14.2,-3.0,85,75,54,30.32,30.05,17,8,17,0.10
2013-3-15,30.3,24.2,15.1,25.8,17.9,11.1,86,77,63,30.06,29.96,20,10,20,0.10
2013-3-16,24.2,16.0,7.9,14.5,8.2,-1.1,88,72,57,30.27,30.00,25,10,25,0.02
2013-3-17,27.6,11.9,-12.8,8.8,-4.0,-20.1,84,52,24,30.35,30.04,26,10,29,0.02
2013-3-18,30.0,22.2,15.7,25.8,17.1,8.6,88,80,62,30.04,29.55,30,16,30,0.01
2013-3-19,24.8,16.1,9.3,13.4,5.7,-2.2,86,65,41,30.07,29.60,38,22,38,0.01
2013-3-20,16.4,9.4,2.6,5.2,0.1,-4.9,78,66,51,30.17,30.07,22,12,22,0.00
2013-3-21,28.2,15.8,6.5,12.6,6.7,1.1,86,68,46,30.16,30.08,15,6,15,0.00
2013-3-22,30.4,16.2,-1.8,20.4,9.2,-7.0,88,74,56,30.17,30.11,14,5,14,0.01
2013-3-23,34.0,22.0,6.5,20.3,15.3,1.8,90,76,55,30.24,30.17,20,5,20,0.01
2013-3-24,30.4,23.5,16.2,23.6,18.1,12.9,89,80,69,30.20,30.04,25,11,25,0.01
2013-3-25,31.9,22.9,14.9,22.5,17.3,11.9,90,80,59,30.24,30.06,22,6,22,0.01
2013-3-26,36.9,30.2,23.9,22.8,20.5,15.9,85,68,43,30.31,30.24,16,4,16,0.04
2013-3-27,41.8,31.9,21.1,22.1,18.0,12.0,82,60,31,30.35,30.31,20,5,20,0.04
2013-3-28,44.6,29.2,12.4,20.5,14.9,9.0,88,60,28,30.39,30.31,16,5,16,0.00
2013-3-29,49.2,32.9,14.3,28.0,19.6,11.4,88,61,31,30.35,30.15,20,7,20,0.00
2013-3-30,42.8,36.4,30.9,39.0,33.7,23.2,100,91,58,30.15,29.79,20,9,20,0.12
2013-3-31,34.0,29.5,22.4,31.0,20.8,6.6,99,73,39,30.02,29.70,34,14,35,0.01
2013-4-1,29.8,23.9,18.1,13.7,8.2,4.0,77,52,35,30.20,30.02,31,15,31,0.01
2013-4-2,33.5,24.3,13.8,13.7,9.2,2.2,79,55,27,30.39,30.20,23,10,23,0.00
2013-4-3,42.1,26.9,5.6,23.1,10.6,1.6,86,55,23,30.47,30.09,33,12,33,0.00
2013-4-4,44.6,37.8,28.5,31.3,23.2,15.1,76,57,35,30.16,29.98,29,14,29,0.00
2013-4-5,40.1,31.6,19.1,27.2,16.2,10.7,88,55,30,30.29,30.10,20,7,20,0.00
2013-4-6,40.2,33.0,30.1,36.2,30.3,27.2,100,90,74,30.10,29.59,29,12,29,0.20
2013-4-7,38.0,33.2,30.0,32.3,30.2,27.4,96,89,76,29.97,29.68,17,6,17,0.13
2013-4-8,39.5,35.2,30.3,37.3,34.2,28.5,100,96,90,30.08,29.80,15,5,15,0.02
2013-4-9,38.2,33.9,30.6,33.6,26.7,15.7,100,77,44,30.22,30.06,26,11,26,0.02
2013-4-10,38.2,32.6,27.8,24.9,21.1,12.4,86,63,44,30.26,30.06,24,13,24,0.00
2013-4-11,31.6,29.5,25.1,27.2,22.2,13.2,90,75,47,30.08,29.80,29,15,29,0.01
2013-4-12,33.5,28.0,24.7,27.6,24.5,21.8,91,86,70,29.84,29.73,21,10,21,0.20
2013-4-13,32.7,26.3,18.3,23.3,20.7,14.5,90,80,60,30.03,29.82,15,6,15,0.10
2013-4-14,39.1,26.6,9.9,31.5,21.1,5.9,96,81,51,30.06,29.69,25,8,25,0.07
2013-4-15,36.9,34.0,32.5,34.2,30.0,26.1,97,86,74,29.91,29.59,39,14,39,0.37
2013-4-16,42.6,35.6,27.5,30.7,26.8,22.5,88,72,46,30.39,29.91,24,10,24,0.15
2013-4-17,39.3,32.3,26.3,29.8,26.4,22.4,93,79,62,30.42,30.06,17,8,17,0.01
2013-4-18,32.7,30.9,28.8,31.1,29.6,27.7,96,95,92,30.06,29.37,18,2,18,0.11
2013-4-19,28.8,25.5,16.9,27.8,23.2,13.2,96,91,85,29.98,29.33,20,1,20,0.11
2013-4-20,34.0,20.8,3.4,24.1,13.6,-1.1,91,75,40,30.42,29.98,20,6,20,0.35
2013-4-21,37.0,30.2,17.2,35.7,26.0,13.5,97,84,70,30.43,30.12,37,16,37,0.33
2013-4-22,45.5,36.6,30.3,36.7,29.1,18.6,98,77,38,30.26,30.11,24,11,24,0.12
2013-4-23,38.3,31.8,21.6,29.4,25.9,17.7,95,80,47,30.11,30.03,25,11,25,0.38
2013-4-24,44.2,30.0,14.1,32.8,23.6,10.7,100,79,48,30.05,29.91,28,9,29,0.12
2013-4-25,44.5,34.4,22.2,30.9,25.7,20.5,98,73,41,30.21,29.97,23,9,23,0.05
2013-4-26,59.9,45.5,34.1,40.9,34.6,26.1,94,68,44,30.19,30.05,20,10,21,0.14
2013-4-27,67.9,48.6,30.0,43.1,35.3,28.5,95,65,27,30.15,29.92,23,7,23,0.00
2013-4-28,68.4,55.4,43.9,52.7,44.3,40.6,100,70,38,29.92,29.68,30,12,30,0.27
2013-4-29,70.4,53.0,37.2,50.4,42.9,37.2,100,73,31,29.78,29.63,12,5,12,0.27
2013-4-30,73.2,58.1,46.8,56.7,46.2,27.1,94,67,39,29.87,29.43,37,15,37,0.01
2013-5-1,48.5,37.6,31.5,40.2,33.4,29.0,99,86,52,30.49,29.87,17,7,17,0.06
2013-5-2,31.8,29.6,28.4,30.5,27.3,25.8,96,91,83,30.57,30.47,24,11,24,0.06
2013-5-3,29.8,28.9,27.3,28.0,26.6,25.3,96,91,88,30.47,30.25,24,13,25,0.00
2013-5-4,37.9,32.7,29.7,35.5,31.5,28.0,98,95,90,30.26,30.21,18,11,18,0.57
2013-5-5,48.9,38.2,32.2,39.7,34.8,30.8,99,88,68,30.25,30.15,15,7,15,0.41
2013-5-6,68.6,49.7,30.0,43.7,38.2,29.3,99,70,37,30.17,30.04,13,5,13,0.41
2013-5-7,76.0,55.0,33.5,44.7,38.4,32.2,96,61,24,30.10,29.96,17,4,17,0.00
2013-5-8,77.2,56.3,36.0,52.5,43.9,33.9,94,67,28,30.03,29.96,17,6,17,0.01
2013-5-9,55.4,40.4,34.9,47.7,36.7,27.5,96,87,71,30.18,29.97,23,12,23,0.24
2013-5-10,55.3,42.0,30.1,30.5,26.6,20.1,92,59,27,30.18,29.89,21,8,21,0.24
2013-5-11,43.2,38.4,35.2,34.5,27.8,20.7,92,66,51,30.13,29.85,38,18,38,0.02
2013-5-12,48.9,38.9,28.7,22.6,18.6,11.6,70,46,23,30.18,30.11,31,13,31,0.02
2013-5-13,58.0,44.6,22.9,36.4,24.8,16.8,89,51,24,30.18,29.73,28,11,28,0.00
2013-5-14,84.5,63.0,38.3,50.6,41.4,33.9,87,49,22,29.79,29.39,32,12,32,0.00
2013-5-15,75.7,63.4,51.4,47.3,40.6,33.2,76,47,23,29.81,29.54,29,13,29,0.00
2013-5-16,71.6,59.9,47.6,46.6,35.5,24.5,86,45,21,30.00,29.79,20,8,20,0.00
2013-5-17,74.6,59.6,48.9,49.9,39.5,31.2,75,49,31,30.07,29.99,24,9,24,0.00
2013-5-18,70.1,58.4,51.3,62.6,55.5,48.0,100,91,72,30.02,29.84,22,9,22,0.53
2013-5-19,84.3,65.8,53.1,64.2,59.7,50.4,100,84,45,29.86,29.65,29,10,29,1.22
2013-5-20,73.0,58.8,42.2,62.5,55.6,41.9,100,91,56,29.66,29.50,26,9,26,0.10
2013-5-21,49.5,42.9,39.5,44.8,41.6,39.0,100,95,82,29.78,29.58,18,8,18,0.13
2013-5-22,47.4,43.0,39.1,46.3,41.6,38.0,99,95,84,30.07,29.76,32,11,32,0.08
2013-5-23,51.1,42.2,31.8,38.3,30.5,24.2,91,65,36,30.38,30.07,26,12,27,0.08
2013-5-24,66.8,48.6,28.4,40.4,32.5,27.2,97,61,25,30.47,30.28,17,4,17,0.00
2013-5-25,67.6,54.5,40.6,45.6,40.7,34.1,93,64,31,30.35,30.25,22,6,22,0.00
2013-5-26,70.3,55.3,38.6,42.5,35.0,27.6,97,54,22,30.32,30.14,26,9,26,0.00
2013-5-27,70.3,58.0,44.5,45.5,41.2,36.7,80,55,37,30.15,29.89,26,12,28,0.00
2013-5-28,64.8,58.3,53.2,55.5,49.4,42.5,98,73,61,29.89,29.70,22,7,22,0.01
2013-5-29,79.8,64.4,55.1,65.9,57.4,53.6,100,81,41,29.82,29.68,23,8,23,0.01
2013-5-30,78.3,68.3,60.5,68.1,62.6,58.8,100,83,59,29.73,29.54,37,14,37,0.01
2013-5-31,79.4,65.3,54.5,62.9,56.8,43.4,95,76,43,29.60,29.48,36,15,36,0.19
2013-6-1,66.6,52.9,40.9,59.4,50.6,39.3,100,92,69,29.88,29.53,25,8,26,0.04
2013-6-2,60.7,47.5,40.2,41.9,39.0,34.6,96,76,39,30.06,29.88,31,9,31,0.01
2013-6-3,63.9,50.5,35.0,40.7,35.2,23.5,98,61,27,30.12,30.02,18,6,18,0.01
2013-6-4,63.2,54.2,48.2,52.2,43.8,30.1,96,70,45,30.16,30.09,17,7,17,0.12
2013-6-5,53.8,50.9,49.8,52.5,50.0,49.3,100,97,91,30.14,30.01,22,8,22,0.47
2013-6-6,53.5,50.2,47.7,50.9,48.5,45.7,99,94,86,30.05,30.00,18,6,18,0.01
2013-6-7,66.3,54.6,41.9,52.3,45.1,36.6,99,73,42,30.06,29.93,12,4,12,0.01
2013-6-8,71.8,57.8,48.5,56.3,50.1,45.4,99,78,42,29.98,29.91,18,5,18,0.06
2013-6-9,60.9,55.4,50.1,58.4,53.0,47.6,96,92,77,29.99,29.84,21,9,21,0.15
2013-6-10,73.9,64.0,57.2,63.0,58.5,55.5,98,83,62,29.85,29.77,15,5,15,0.15
2013-6-11,77.4,64.8,54.2,62.6,56.0,45.1,100,76,33,29.86,29.79,18,5,18,0.00
2013-6-12,77.4,64.6,49.9,58.0,50.4,46.8,100,64,38,29.88,29.74,16,5,16,0.00
2013-6-13,68.4,59.9,50.5,51.4,48.4,43.6,94,67,43,30.10,29.85,22,9,22,0.00
2013-6-14,75.8,61.9,46.2,53.8,48.7,42.3,98,66,35,30.13,29.92,22,6,22,0.00
2013-6-15,68.9,63.7,57.8,64.4,60.5,52.9,96,89,73,29.92,29.78,16,6,20,0.32
2013-6-16,77.2,61.6,50.7,60.2,54.1,47.8,100,81,38,29.88,29.78,43,8,43,0.15
2013-6-17,61.6,54.2,44.6,57.5,50.6,42.0,100,88,72,30.06,29.82,21,7,21,0.16
2013-6-18,70.3,55.0,39.5,46.9,40.9,34.3,99,65,28,30.16,30.06,17,6,17,0.00
2013-6-19,76.7,61.5,44.1,58.4,51.2,41.6,97,71,45,30.11,29.97,18,7,18,0.00
2013-6-20,76.3,64.7,57.6,66.8,61.6,54.5,100,90,68,30.04,29.97,22,9,22,2.17
2013-6-21,64.2,61.8,57.2,64.2,61.4,56.1,100,98,93,30.10,29.76,21,8,21,0.37
2013-6-22,71.6,64.0,56.6,67.3,62.2,55.8,100,94,80,30.03,29.86,18,5,18,0.03
2013-6-23,79.6,70.6,63.4,69.7,65.1,62.0,100,84,62,29.88,29.67,34,13,35,0.09
2013-6-24,80.1,70.1,58.6,68.0,62.6,57.2,100,79,49,29.87,29.75,20,6,20,0.00
2013-6-25,84.0,72.1,60.7,68.3,64.5,58.7,100,79,50,29.80,29.70,14,5,14,0.00
2013-6-26,81.6,70.9,63.9,73.1,68.2,62.4,100,92,68,29.72,29.62,31,6,31,0.33
2013-6-27,80.3,69.7,62.7,69.1,63.1,56.9,100,82,46,29.75,29.64,24,9,24,0.11
2013-6-28,67.1,63.0,58.1,64.6,59.7,55.7,96,89,78,29.75,29.62,18,10,18,0.25
2013-6-29,68.4,60.2,52.3,57.5,53.0,44.8,100,79,51,29.97,29.73,22,10,22,0.25
2013-6-30,77.6,63.7,48.0,54.5,49.2,43.3,95,65,32,30.09,29.97,20,8,20,0.00
2013-7-1,75.3,62.3,47.1,56.5,51.2,43.7,95,70,40,30.17,30.09,17,6,17,0.00
2013-7-2,74.6,58.8,42.5,52.5,41.6,30.5,96,60,21,30.18,30.08,15,6,15,0.00
2013-7-3,78.9,61.4,44.1,56.7,48.9,39.8,100,69,27,30.08,29.95,13,4,13,0.00
2013-7-4,81.1,69.1,55.6,63.3,58.5,52.7,98,71,47,29.98,29.86,20,9,20,0.00
2013-7-5,83.8,73.6,61.3,62.7,59.7,55.1,91,64,39,29.90,29.79,37,12,37,0.00
2013-7-6,83.6,73.9,67.1,72.9,65.2,59.8,95,75,55,29.85,29.79,22,9,22,0.03
2013-7-7,83.0,72.2,57.6,73.6,67.4,55.6,100,86,64,29.90,29.78,23,7,23,0.27
2013-7-8,77.4,64.3,55.4,68.9,61.1,54.8,100,90,72,29.97,29.83,13,5,13,0.29
2013-7-9,73.9,66.9,58.1,73.0,65.2,56.7,100,94,88,29.98,29.71,26,6,26,0.32
2013-7-10,72.5,64.6,58.6,62.8,55.9,51.5,91,75,50,29.99,29.80,26,11,27,0.32
2013-7-11,78.5,66.2,51.1,61.8,55.0,49.1,100,70,39,30.10,29.98,17,5,17,0.00
2013-7-12,81.8,70.9,60.7,64.5,59.4,56.4,89,69,44,30.03,29.90,30,14,30,0.00
2013-7-13,79.6,71.9,65.3,68.6,62.4,58.0,82,72,61,30.06,29.92,25,11,25,0.01
2013-7-14,81.8,70.4,64.8,67.9,63.9,59.5,96,81,52,30.17,30.06,17,6,23,0.06
2013-7-15,83.8,72.2,61.0,68.1,64.2,59.6,100,78,50,30.22,30.15,18,5,18,0.00
2013-7-16,86.5,76.7,67.3,76.5,70.0,64.7,100,82,59,30.16,30.09,26,9,26,0.01
2013-7-17,86.3,76.7,66.6,71.5,68.6,64.8,99,78,54,30.17,30.05,27,9,27,0.01
2013-7-18,88.4,79.0,68.6,72.1,69.5,66.8,98,75,53,30.05,29.62,40,14,40,0.00
2013-7-19,79.9,73.3,61.3,73.1,64.6,54.2,98,76,47,29.76,29.57,27,12,27,0.11
2013-7-20,67.1,61.1,51.1,58.5,50.7,44.8,93,70,48,30.00,29.76,16,8,16,0.00
2013-7-21,72.5,61.8,50.1,61.0,54.2,45.2,91,77,58,29.99,29.83,15,7,15,0.00
2013-7-22,79.4,68.1,59.2,69.7,61.2,52.0,98,80,51,29.83,29.58,26,13,26,0.00
2013-7-23,66.0,59.4,51.4,53.3,49.4,44.7,92,71,47,30.00,29.73,20,9,22,0.00
2013-7-24,69.8,59.4,47.3,56.7,51.4,45.4,99,77,53,30.07,29.95,20,7,20,0.00
2013-7-25,76.5,64.1,54.7,64.6,57.6,51.8,93,81,54,29.96,29.83,28,7,28,0.36
2013-7-26,63.4,54.4,46.2,59.2,52.2,44.6,100,92,77,30.02,29.82,23,8,23,0.06
2013-7-27,53.5,49.2,45.2,49.8,46.5,43.6,97,91,79,30.01,29.86,21,10,21,0.03
2013-7-28,59.5,54.0,48.2,56.3,51.4,46.8,99,91,80,30.04,29.89,21,8,21,0.01
2013-7-29,71.8,59.3,44.8,58.4,52.1,43.0,100,79,53,30.13,30.03,14,4,14,0.01
2013-7-30,67.6,62.4,57.6,61.2,58.3,54.6,94,87,73,30.12,30.02,20,6,20,0.00
2013-7-31,73.3,64.8,55.0,62.8,57.6,48.5,98,80,43,30.02,29.90,31,11,31,0.00
2013-8-1,71.5,61.1,49.4,58.6,53.0,47.2,99,76,53,29.95,29.82,22,7,22,0.00
2013-8-2,70.3,61.3,52.3,58.4,53.1,49.3,99,77,48,29.99,29.79,25,8,25,0.03
2013-8-3,70.8,59.1,48.5,55.3,50.6,44.4,99,76,41,30.18,29.99,24,7,24,0.00
2013-8-4,69.4,57.7,45.1,56.9,50.0,43.2,100,77,50,30.24,30.03,13,3,13,0.00
2013-8-5,67.8,59.4,52.0,65.5,58.1,48.8,100,96,88,30.03,29.77,14,6,14,0.96
2013-8-6,71.5,64.9,61.2,64.9,61.6,57.4,99,90,63,29.79,29.65,16,6,16,0.09
2013-8-7,69.6,61.6,50.8,61.7,53.9,46.1,99,79,44,30.00,29.68,18,8,18,0.09
2013-8-8,69.8,58.3,46.5,60.5,53.4,44.9,100,85,58,30.03,29.95,23,5,23,0.02
2013-8-9,67.9,59.4,50.5,55.3,52.0,47.3,98,78,52,30.08,29.94,25,8,25,0.02
2013-8-10,69.3,60.3,53.5,58.9,54.3,50.4,96,82,57,30.15,30.07,12,4,13,0.00
2013-8-11,73.3,59.9,47.7,59.3,53.2,46.1,100,81,50,30.09,29.98,13,3,13,0.00
2013-8-12,72.5,59.9,48.3,59.5,53.1,44.8,99,80,51,30.07,29.94,21,7,21,0.00
2013-8-13,63.7,54.0,43.8,53.3,47.1,41.9,100,79,56,30.19,30.07,16,5,17,0.00
2013-8-14,68.3,54.5,42.1,53.4,46.8,40.0,99,78,45,30.22,30.10,18,4,18,0.00
2013-8-15,73.3,59.7,46.4,58.0,51.6,44.3,100,78,44,30.11,30.06,17,5,17,0.00
2013-8-16,76.8,62.5,48.5,60.5,53.6,46.6,100,76,40,30.15,30.10,15,4,15,0.00
2013-8-17,76.8,63.5,50.4,61.0,54.6,48.6,100,76,47,30.19,30.07,27,8,27,0.00
2013-8-18,77.7,64.6,51.0,60.3,55.0,49.0,100,74,46,30.14,29.97,27,9,27,0.00
2013-8-19,79.9,69.0,60.2,67.1,61.7,55.5,90,78,61,29.99,29.87,25,10,25,0.00
2013-8-20,85.1,73.7,63.1,70.5,66.6,61.4,98,80,59,29.90,29.80,25,10,25,0.00
2013-8-21,79.9,72.6,62.6,74.3,68.2,59.9,95,86,65,29.97,29.78,20,8,20,0.12
2013-8-22,74.9,65.3,52.3,59.9,52.1,44.9,94,65,36,30.12,29.97,16,7,16,0.12
2013-8-23,78.5,61.6,46.4,58.0,52.0,44.8,100,75,34,30.17,30.05,16,5,16,0.00
2013-8-24,81.4,71.3,60.5,69.6,63.2,57.6,96,77,58,30.12,29.90,31,15,31,0.00
2013-8-25,90.1,80.1,71.8,74.2,71.2,69.0,92,76,55,29.95,29.85,27,14,27,0.00
2013-8-26,82.2,75.6,69.4,76.1,72.4,67.0,100,90,73,29.97,29.82,48,7,48,2.32
2013-8-27,80.5,72.0,67.6,72.8,69.5,65.5,100,93,72,29.88,29.74,27,6,27,0.02
2013-8-28,80.7,70.6,61.6,70.6,65.6,58.7,100,86,51,30.00,29.88,12,2,12,0.02
2013-8-29,80.9,70.8,66.0,72.3,68.0,63.5,100,91,66,30.00,29.74,30,7,30,0.45
2013-8-30,74.0,68.4,59.5,70.1,64.5,57.5,100,88,66,29.90,29.76,20,7,20,0.45
2013-8-31,78.6,66.8,56.0,66.9,61.5,54.9,100,85,61,29.89,29.65,25,6,25,0.09
2013-9-1,72.8,65.0,57.6,63.7,59.7,52.5,99,84,61,29.90,29.65,28,11,28,0.09
2013-9-2,58.7,53.7,46.4,53.7,49.1,44.2,95,85,68,30.05,29.90,18,7,18,0.01
2013-9-3,70.8,56.2,42.8,58.7,51.1,41.5,100,84,59,30.08,29.94,19,8,19,0.00
2013-9-4,66.8,59.1,49.8,59.2,53.6,47.6,99,83,56,30.17,29.97,22,6,22,0.00
2013-9-5,72.1,57.6,43.6,56.7,49.0,42.2,100,76,43,30.28,30.14,13,4,13,0.00
2013-9-6,80.5,66.5,52.8,69.6,61.2,49.7,97,84,64,30.14,29.85,21,9,21,0.00
2013-9-7,79.6,66.9,57.2,69.7,62.9,54.9,99,88,68,30.07,29.83,19,7,19,0.00
2013-9-8,67.9,59.6,49.6,58.4,52.8,47.9,95,79,54,30.12,29.92,18,7,18,0.01
2013-9-9,76.5,66.7,59.5,72.7,64.6,56.2,100,93,85,29.92,29.61,17,6,17,0.18
2013-9-10,73.0,68.8,63.7,68.9,66.3,61.0,100,92,77,29.88,29.67,22,8,22,0.06
2013-9-11,74.0,64.1,57.6,64.2,58.7,52.4,100,84,50,29.99,29.88,26,9,26,0.05
2013-9-12,61.5,54.8,45.4,56.5,49.6,42.8,100,84,58,30.21,29.96,25,9,25,0.05
2013-9-13,60.2,49.4,38.9,49.5,43.6,37.3,100,82,54,30.28,30.10,14,3,14,0.00
2013-9-14,67.6,53.6,40.6,55.7,48.5,39.3,100,84,57,30.10,29.93,22,8,22,0.12
2013-9-15,55.1,50.5,38.6,54.1,48.4,36.4,98,92,83,30.32,29.93,25,7,26,0.01
2013-9-16,60.4,45.6,33.5,48.5,39.6,32.2,100,82,48,30.47,30.31,13,4,13,0.01
2013-9-17,65.3,52.1,39.3,52.6,44.1,37.4,100,76,44,30.32,30.00,26,12,26,0.00
2013-9-18,65.0,60.5,56.0,65.0,60.0,52.6,100,98,86,30.00,29.75,20,10,20,0.04
2013-9-19,71.3,66.4,64.3,71.3,66.2,64.3,100,99,91,29.77,29.61,29,8,29,0.50
2013-9-20,65.3,57.9,50.1,65.2,54.2,46.1,100,88,72,29.82,29.64,24,10,24,0.50
2013-9-21,55.9,48.2,39.9,46.5,41.9,36.3,96,80,57,29.99,29.82,25,8,25,0.00
2013-9-22,60.9,46.9,34.4,47.0,39.9,32.9,99,79,50,30.09,29.98,18,8,18,0.00
2013-9-23,66.4,54.2,43.5,52.2,46.7,41.4,95,77,52,30.06,29.97,26,13,26,0.00
2013-9-24,69.6,55.3,44.2,54.0,48.1,42.3,99,79,47,30.03,29.94,17,6,17,0.00
2013-9-25,70.3,54.4,42.2,56.2,48.2,40.7,100,82,50,30.01,29.92,16,5,16,0.00
2013-9-26,70.8,57.3,44.9,54.6,49.5,43.0,100,78,48,30.04,29.94,24,11,24,0.00
2013-9-27,76.8,65.6,55.9,60.1,54.7,49.2,83,69,55,30.01,29.84,33,16,33,0.00
2013-9-28,71.8,60.5,50.1,61.9,53.7,48.0,96,79,59,29.89,29.57,46,18,46,0.23
2013-9-29,66.3,53.0,41.1,52.9,45.9,39.8,100,79,44,29.95,29.85,20,8,20,0.23
2013-9-30,69.8,60.1,52.2,54.4,49.0,45.5,81,67,51,29.85,29.62,34,16,35,0.00
2013-10-1,69.3,59.6,46.5,54.7,46.1,33.5,85,64,27,29.92,29.57,31,14,31,0.00
2013-10-2,71.1,53.5,38.2,52.1,41.5,32.6,99,70,25,30.06,29.92,16,6,16,0.22
2013-10-3,55.4,52.5,50.5,54.1,51.7,49.9,100,97,90,29.97,29.89,15,7,15,0.37
2013-10-4,57.6,52.6,50.5,52.3,50.8,49.4,99,94,80,30.07,29.97,20,10,20,0.03
2013-10-5,55.6,53.0,50.2,55.6,52.8,49.3,100,100,96,30.01,29.68,22,9,22,0.70
2013-10-6,55.9,50.3,43.8,54.1,49.2,42.0,100,96,82,29.76,29.64,22,7,22,0.04
2013-10-7,57.0,44.8,35.3,47.5,40.8,34.0,100,87,56,30.02,29.75,16,6,16,0.05
2013-10-8,71.5,54.8,37.0,49.2,42.4,35.7,100,68,35,30.04,29.88,34,15,35,0.00
2013-10-9,70.6,59.7,49.4,52.7,48.1,43.9,90,67,46,30.07,29.94,25,12,25,0.00
2013-10-10,70.9,55.6,42.8,48.5,45.1,40.9,97,71,38,30.09,29.96,21,9,21,0.00
2013-10-11,72.8,61.2,48.9,55.8,50.9,45.0,93,70,49,29.99,29.71,34,16,43,0.00
2013-10-12,63.4,55.2,47.1,54.5,46.8,41.3,92,74,56,30.05,29.67,32,16,36,0.00
2013-10-13,54.1,45.4,33.1,44.9,37.2,27.9,95,75,38,30.42,30.05,22,7,22,0.00
2013-10-14,54.4,42.6,30.3,40.0,34.5,28.8,99,76,50,30.46,30.15,13,5,13,0.00
2013-10-15,49.9,47.6,44.5,49.9,46.3,38.8,100,96,68,30.15,29.69,28,9,28,0.66
2013-10-16,44.9,40.4,31.5,44.4,38.1,29.7,99,92,80,29.91,29.75,26,9,26,0.72
2013-10-17,49.6,39.1,29.7,44.1,36.4,28.4,100,91,69,29.90,29.79,12,3,12,0.07
2013-10-18,46.4,40.2,33.4,41.7,36.4,26.1,96,87,48,29.91,29.80,29,8,29,0.04
2013-10-19,40.5,36.7,31.3,39.8,35.2,29.2,98,94,88,29.84,29.67,14,6,14,0.10
2013-10-20,36.8,31.5,27.3,36.3,30.4,25.8,99,96,93,29.81,29.72,12,3,12,0.07
2013-10-21,33.8,32.0,30.6,33.3,30.1,27.6,98,92,83,29.87,29.77,24,5,24,0.09
2013-10-22,34.9,32.9,29.0,31.8,29.3,25.3,95,87,71,30.02,29.86,20,7,20,0.09
2013-10-23,34.9,31.2,26.9,29.6,26.1,21.7,93,81,60,30.05,29.96,24,8,24,0.02
2013-10-24,37.6,33.0,30.3,29.8,28.2,25.9,93,83,64,30.28,30.05,20,9,20,0.04
2013-10-25,47.9,36.6,25.3,39.1,29.8,22.5,97,77,58,30.29,29.70,32,12,32,0.04
2013-10-26,47.0,38.9,33.7,37.0,32.9,29.3,96,79,63,30.04,29.70,29,12,29,0.04
2013-10-27,46.5,37.0,29.5,34.2,30.3,26.4,91,77,56,30.23,29.81,27,11,27,0.01
2013-10-28,38.8,31.4,24.4,29.3,22.0,16.2,89,70,42,30.51,30.23,22,9,22,0.01
2013-10-29,35.0,30.1,23.5,31.9,26.5,20.5,96,87,71,30.51,30.19,12,5,12,0.04
2013-10-30,48.0,40.6,32.9,48.0,40.3,31.9,100,99,96,30.20,29.70,16,7,17,0.03
2013-10-31,50.4,47.0,43.2,50.4,47.0,43.2,100,100,99,29.70,29.28,17,5,17,0.07
2013-11-1,43.1,39.2,35.5,43.1,38.4,33.4,100,97,92,29.80,29.29,20,10,20,0.01
2013-11-2,39.3,32.8,25.8,33.7,30.1,23.4,94,90,71,30.16,29.80,10,4,16,0.01
2013-11-3,45.2,35.0,23.8,35.5,28.8,21.9,100,79,59,30.24,30.06,43,15,43,0.00
2013-11-4,42.3,40.6,32.7,41.8,37.1,30.2,98,88,69,30.13,29.88,34,18,34,0.14
2013-11-5,42.8,34.7,27.9,35.1,30.5,26.4,99,86,63,30.27,30.03,16,5,16,0.04
2013-11-6,33.5,29.2,21.6,31.4,26.7,18.6,96,90,82,30.16,29.97,17,5,17,0.02
2013-11-7,34.3,23.9,15.7,28.6,20.6,12.8,96,87,74,30.23,30.16,21,6,21,0.02
2013-11-8,34.3,26.6,14.1,32.0,23.9,11.1,95,89,85,30.25,29.68,37,11,37,0.05
2013-11-9,35.9,34.5,33.1,34.5,32.3,29.5,98,92,84,30.07,29.63,34,14,34,0.23
2013-11-10,38.8,35.0,32.4,30.3,28.6,26.1,91,78,62,30.30,30.07,23,8,23,0.04
2013-11-11,32.4,21.4,16.4,30.3,12.6,8.1,92,69,53,30.68,30.09,31,14,31,0.00
2013-11-12,25.6,18.7,16.4,12.7,9.6,8.1,72,68,51,30.75,30.47,23,5,23,0.00
2013-11-13,43.3,29.9,15.2,31.2,21.1,9.7,84,70,52,30.46,29.88,35,15,35,0.06
2013-11-14,41.5,34.7,28.8,32.8,29.8,26.2,90,82,69,29.88,29.77,13,6,13,0.00
2013-11-15,47.6,36.5,27.8,36.7,32.0,25.8,99,84,65,29.88,29.74,17,8,17,0.01
2013-11-16,48.2,41.3,37.2,48.2,38.4,33.2,100,89,78,29.74,29.29,27,11,27,0.54
2013-11-17,48.3,39.5,30.0,48.3,38.6,27.2,100,97,87,29.62,29.27,33,16,33,0.00
2013-11-18,30.0,26.7,23.9,26.7,19.8,17.0,90,75,68,30.29,29.62,41,17,41,0.00
2013-11-19,37.8,28.5,15.9,21.2,18.1,12.7,92,67,46,30.34,30.04,39,14,39,0.00
2013-11-20,41.2,36.6,32.2,30.4,24.6,18.6,92,64,46,30.08,30.01,39,19,39,0.01
2013-11-21,34.0,29.3,22.2,33.0,26.8,16.7,96,90,79,30.49,30.08,25,10,25,0.01
2013-11-22,27.6,20.7,12.8,17.0,12.1,3.7,86,70,43,30.57,30.41,27,12,27,0.00
2013-11-23,12.8,9.0,3.0,3.9,0.6,-5.4,78,68,64,30.79,30.57,30,4,30,0.00
2013-11-24,24.2,11.9,-2.8,15.1,2.5,-8.6,81,66,53,30.76,29.98,38,16,38,0.00
2013-11-25,34.6,29.5,24.2,26.4,21.9,14.7,84,73,62,30.00,29.88,33,17,33,0.01
2013-11-26,26.7,15.4,11.2,16.5,7.1,1.2,84,70,52,30.36,30.00,33,13,33,0.00
2013-11-27,22.7,17.2,12.8,15.2,12.3,8.9,87,81,62,30.38,30.18,15,6,15,0.00
2013-11-28,22.5,17.9,14.8,17.3,14.0,11.2,89,84,76,30.55,30.17,13,6,13,0.00
2013-11-29,24.1,16.2,2.0,18.0,11.2,-3.6,90,80,74,30.62,30.28,25,9,25,0.00
2013-11-30,33.5,27.8,23.6,25.1,21.8,17.9,83,78,69,30.27,30.07,20,6,20,0.01
2013-12-1,33.1,29.1,26.9,27.0,24.5,22.1,89,83,76,30.21,29.99,12,4,12,0.00
2013-12-2,32.4,27.3,19.1,28.8,24.4,15.4,96,89,80,29.99,29.77,20,8,20,0.01
2013-12-3,30.6,28.1,24.4,29.1,26.3,21.9,96,93,90,29.93,29.76,22,10,22,0.00
2013-12-4,32.2,27.8,24.4,31.2,26.2,21.9,97,94,90,29.92,29.38,16,6,16,0.00
2013-12-5,25.4,8.7,-2.8,23.4,4.0,-8.8,92,81,76,30.28,29.48,0,0,0,0.00
2013-12-6,3.2,-5.2,-13.3,-1.8,-11.0,-20.0,80,75,71,30.65,30.28,0,0,0,0.00
2013-12-7,-2.4,-11.3,-19.3,-7.6,-17.9,-26.6,78,72,66,30.76,30.65,0,0,0,0.00
2013-12-8,7.7,-3.2,-20.5,3.2,-8.6,-28.3,84,77,66,30.70,30.12,0,0,0,0.00
2013-12-9,7.2,-0.7,-13.0,3.4,-6.4,-19.7,84,76,69,30.12,29.97,0,0,0,0.07
2013-12-10,3.5,-4.7,-13.0,-1.3,-10.5,-19.5,81,76,72,30.30,29.92,0,0,0,0.00
2013-12-11,-4.1,-9.2,-14.6,-10.6,-15.6,-21.5,78,73,70,30.57,30.30,0,0,0,0.00
2013-12-12,9.0,1.1,-10.7,4.7,-3.8,-17.0,83,79,73,30.44,30.25,0,0,0,0.00
2013-12-13,11.4,5.6,2.0,5.6,0.6,-3.3,83,79,75,30.44,30.28,13,6,13,0.00
2013-12-14,16.5,8.7,2.4,11.7,4.2,-2.9,84,81,78,30.44,30.03,18,7,18,0.00
2013-12-15,4.5,-7.1,-19.3,-0.3,-13.7,-26.9,80,72,66,30.25,30.04,18,8,18,0.00
2013-12-16,9.3,-1.9,-19.6,5.7,-6.9,-27.2,85,79,67,30.25,29.97,21,8,21,0.00
2013-12-17,23.8,14.1,3.4,21.8,10.4,-3.3,92,85,73,30.11,29.89,26,9,26,0.00
2013-12-18,22.5,8.0,-7.2,18.4,3.3,-13.7,88,81,72,30.10,29.74,21,7,21,0.00
2013-12-19,16.2,13.7,6.3,11.7,10.0,1.9,89,85,80,30.19,29.86,22,11,22,0.00
2013-12-20,20.2,11.7,3.0,15.7,7.4,-1.8,89,83,78,30.15,29.92,12,4,12,0.00
2013-12-21,20.2,15.5,7.4,15.1,11.9,3.6,88,85,78,30.09,29.92,13,3,13,0.00
2013-12-22,23.5,19.8,16.7,20.2,16.8,13.5,91,88,86,30.19,30.00,15,8,15,0.00
2013-12-23,16.9,12.7,5.0,13.5,8.6,0.2,87,84,79,30.48,30.19,17,6,17,0.00
2013-12-24,10.7,2.9,-12.2,6.3,-2.1,-19.0,84,79,70,30.51,30.22,26,10,26,0.00
2013-12-25,17.5,11.0,6.3,12.7,6.8,2.0,85,83,80,30.22,30.08,15,9,15,0.00
2013-12-26,15.7,8.4,1.8,10.2,3.8,-2.9,87,81,75,30.27,30.14,9,3,9,0.00
2013-12-27,28.5,21.1,9.9,26.7,18.9,6.8,94,91,87,30.26,29.89,23,9,23,0.00
2013-12-28,31.3,25.5,15.1,29.8,23.7,11.7,95,93,86,30.01,29.77,28,7,28,0.00
2013-12-29,15.1,-2.3,-20.2,11.5,-8.4,-28.3,86,75,66,30.33,29.99,27,11,27,0.00
2013-12-30,-2.0,-14.8,-27.0,-11.1,-22.5,-35.4,75,68,62,30.42,30.31,10,5,10,0.00
2013-12-31,-6.8,-14.9,-22.5,-14.4,-22.3,-30.6,73,68,62,30.57,30.28,13,6,13,0.00
2014-1-1,2.2,-6.6,-20.8,-5.4,-13.0,-27.8,77,73,66,30.65,30.55,10,5,10,0.00
2014-1-2,3.9,-8.8,-22.3,-1.8,-15.8,-30.6,80,71,64,30.57,30.48,12,6,12,0.00